OPS 4682 DEB, 38428

Orbit data source: Space-Track

OPS 4682 DEB, 38428 is space debris in LEO originally from a launch on Sat, 03 Apr 1965 UTC launched from the Air Force Western Test Range (AFWTR). Debris objects in space refer to the collection of defunct objects orbiting the Earth. Examples of debris include non-operational satellites, rocket bodies, and fragments generated from explosions, collisions, or faulty payload assembly.

Loading next visibility...
Identifier
38428, 1965-027EH
Orbit
LEO
Country
Flag of USUS
Related business
Manufacturer
Unknown
Mission
Spacecraft
Bus & Motor
Unknown
Mass
Unknown
Launch date (UTC)
1965-04-03 (61 years ago)
Launch vehicle
Unknown
Launch site
Air Force Western Test Range (AFWTR)
Object type
Payload
Rocket body
Debris
Shape & HBR
Unknown shape, 0.1 m
Radar Cross Section
Small (<0.1 m²)

Expand to show TLE details & history
Last TLE update: 2 days ago

TLE from 2 days ago
0 OPS 4682 DEB
1 38428U 65027EH  26102.72878838  .00000597  00000-0  20231-2 0  9998
2 38428  90.2533  11.8623 0041186 230.0291 129.7210 12.97478367589421
Epoch: 2026-04-12T17:29Z
TLE epoch observation values (Epoch: 2026-04-12T17:29:27.316Z)
Latitude
Longitude
-91.43109°
Altitude
1,295.078 km
Speed
7.199 km/s
True Right ascension
00h 47m 26s
True Declination
0° 00' 00"
Sunlit
Object was in daylight at epoch
Visualization orbit readout
Latitude
Unknown
Longitude
Unknown
Altitude
Unknown
Speed
Unknown
Apparent Right ascension
Unknown
Apparent Declination
Unknown
Sunlit
N/A
Visualization observer readout
Local Sidereal Time
02:44:40
Azimuth
Unknown
Elevation
Unknown
Doppler factor
Unknown
Orbital elements
Apogee altitude
1,300.609 km
Perigee altitude
1,237.617 km
Semi-major axis
7,647.25 km
Eccentricity
0.00412
Inclination
90.2533°
RAAN
11.8623°
Arg. of periapsis
230.0291°
True anomaly
130.08282°
Mean anomaly
129.721°
Eccentric anomaly
129.90203°
Mean motion
3.24553 °/min
Orbital period
110.92 mins
BSTAR
0.0020231
Loading maneuver chart data...
Computing Atmospheric mass density...
Loading historical data...
Loading historical data...
Loading historical data...
Loading historical data...
Loading historical data...
Loading historical data...
Loading historical data...

Documentation

Showing up to 5 results
|